Location: Peterborough
(44.3091°N, 78.3197°W)
Time: 07:27:41
(UTC-04:00)

A-11 Canister half - Pass Details

Date: 26 March 2023
Orbit: 1513 x 1686 km, 47.2° (Epoch: 04 June)

Event Time Altitude Azimuth Distance (km) Brightness Sun altitude
Exits shadow 03:21:22 77° 278° (W) 1,727 9.0 -36.1°
Maximum altitude 03:22:20 87° 202° (SSW) 1,692 9.0 -36.0°
Drops below altitude 10° 03:32:32 10° 115° (ESE) 3,930 11.3 -34.8°
Sets 03:35:39 0° 115° (ESE) 4,905 11.8 -34.5°
